Location: Ostrava
(49.8330°N, 18.2830°E)
Time: 20:02:53
(UTC+02:00)

ISS - Pass Details

Date: 21 September 2024
Orbit: 411 x 424 km, 51.6° (Epoch: 12 October)

Event Time Altitude Azimuth Distance (km) Brightness Sun altitude
Rises 21:21:04 0° 287° (WNW) 2,379 1.3 -24.5°
Reaches altitude 10° 21:23:10 10° 286° (WNW) 1,516 0.0 -24.7°
Enters shadow 21:25:11 33° 283° (WNW) 740 -2.0 -25.0°
